STARLINK-6103 (56114 NORAD) Tracking and Keplerian Element Data

This shows tracking and keplerian element data for the satellite.

Feedback or suggestion? Click here.




ElementValue
Catalog56114
NameSTARLINK-6103
Epoch Orbit652
Epoch Day127.25001157
Epoch Year2023
RAAN37.6772
Inclination43.0012
Eccentricity0.0001446
Argument of Perigee277.627
Mean Anonmoly155.1317
Mean Motion15.30557749
Decay Rate-0.00898673
L11 56114U 23046X 23127.25001157 -.00898673 00000+0 -32474-1 0 9991
L22 56114 43.0012 37.6772 0001446 277.6270 155.1317 15.30557749 6529



Live tracking and technical data element details for STARLINK-6103 (NORAD 56114). STARLINK-6103 can be tracked NOW for your location showing map with azimuth and elevation plus other details from your city location.







IsCatalogInMostPopularTable: catalog: 56114, numindb: 1
Update: records affected: 1



GetName: 56114 STARLINK-6103

Hit Count: updated at: Sun, 04 Jun 2023 23:49:20 GMT